EW6606 Weather Reports


Display with metric or nautical units.
time (UTC)temp
F
wind
direction
speed
MPH
gust
MPH
rain 1hr
in
rain 24hr
in
rain mn
in
humidity
%
barometer
mb
20260831110001 74 154 0.0 1.0 0.00 0.00 0.00 86 1020.0
20260831105456 74 129 0.0 2.0 0.00 0.00 0.00 86 1020.1
20260831104951 75 154 0.0 0.0 0.00 0.00 0.00 86 1019.9
20260831104447 75 154 0.0 0.0 0.00 0.00 0.00 86 1020.0
20260831103943 75 154 0.0 1.0 0.00 0.00 0.00 86 1020.0
20260831103438 75 189 1.0 2.0 0.00 0.00 0.00 87 1019.8
20260831102933 75 186 0.0 3.0 0.00 0.00 0.00 87 1019.7
20260831102433 75 157 0.0 3.0 0.00 0.00 0.00 87 1019.6
20260831101928 75 171 2.0 3.0 0.00 0.00 0.00 87 1019.6
20260831101423 75 186 1.0 3.0 0.00 0.00 0.00 86 1019.8
20260831100920 75 169 1.0 3.0 0.00 0.00 0.00 86 1019.6
20260831100415 75 181 2.0 3.0 0.00 0.00 0.00 86 1019.8
20260831095910 75 165 2.0 3.0 0.00 0.00 0.00 86 1019.9
20260831095409 75 146 1.0 3.0 0.00 0.00 0.00 86 1019.7
20260831094904 75 179 1.0 3.0 0.00 0.00 0.00 85 1019.8
20260831094400 75 174 2.0 2.0 0.00 0.00 0.00 85 1019.6
20260831093855 75 179 1.0 2.0 0.00 0.00 0.00 85 1019.6
20260831093345 75 159 1.0 2.0 0.00 0.00 0.00 86 1019.6
20260831092842 75 138 2.0 3.0 0.00 0.00 0.00 86 1019.3
20260831092337 75 173 2.0 3.0 0.00 0.00 0.00 86 1019.4
20260831091832 75 138 1.0 3.0 0.00 0.00 0.00 86 1019.5
20260831091328 75 186 3.0 3.0 0.00 0.00 0.00 86 1019.5
20260831090823 75 192 2.0 3.0 0.00 0.00 0.00 86 1019.5
20260831090319 75 182 2.0 3.0 0.00 0.00 0.00 86 1019.5
20260831085815 75 175 2.0 3.0 0.00 0.00 0.00 85 1019.3
20260831085309 75 150 2.0 3.0 0.00 0.00 0.00 85 1019.3
20260831084804 75 148 2.0 3.0 0.00 0.00 0.00 85 1019.3
20260831084300 75 154 2.0 3.0 0.00 0.00 0.00 85 1019.3
20260831083756 75 158 2.0 3.0 0.00 0.00 0.00 85 1019.1
20260831083251 75 156 2.0 2.0 0.00 0.00 0.00 85 1019.2
20260831082750 75 174 1.0 3.0 0.00 0.00 0.00 85 1019.3
20260831082245 75 159 2.0 2.0 0.00 0.00 0.00 85 1019.2
20260831081740 75 158 2.0 3.0 0.00 0.00 0.00 84 1019.1
20260831081236 76 160 0.0 2.0 0.00 0.00 0.00 83 1018.9
20260831080731 76 131 1.0 3.0 0.00 0.00 0.00 83 1018.9
20260831080226 76 117 0.0 0.0 0.00 0.00 0.00 82 1019.1
20260831075722 76 127 1.0 1.0 0.00 0.00 0.00 82 1019.0
20260831075217 76 89 0.0 2.0 0.00 0.00 0.00 82 1019.2
20260831074716 76 104 0.0 1.0 0.00 0.00 0.00 82 1019.1
20260831074210 77 117 0.0 0.0 0.00 0.00 0.00 81 1019.0
20260831073706 77 117 0.0 1.0 0.00 0.00 0.00 81 1019.0
20260831073205 77 137 1.0 2.0 0.00 0.00 0.00 81 1019.2
20260831072701 77 89 0.0 2.0 0.00 0.00 0.00 80 1019.0
20260831072157 77 37 0.0 1.0 0.00 0.00 0.00 80 1019.2
20260831071656 77 147 0.0 0.0 0.00 0.00 0.00 80 1019.1
20260831071151 77 144 0.0 1.0 0.00 0.00 0.00 80 1019.1
20260831070650 77 140 1.0 2.0 0.00 0.00 0.00 80 1019.0
20260831070144 77 142 0.0 2.0 0.00 0.00 0.00 80 1019.0
20260831065643 77 167 1.0 2.0 0.00 0.00 0.00 80 1019.1
20260831065137 77 197 0.0 3.0 0.00 0.00 0.00 80 1019.1
20260831064632 77 144 0.0 2.0 0.00 0.00 0.00 80 1019.1
20260831064127 78 165 1.0 3.0 0.00 0.00 0.00 80 1019.2
20260831063624 78 164 2.0 2.0 0.00 0.00 0.00 79 1019.2
20260831063118 78 127 2.0 3.0 0.00 0.00 0.00 79 1019.2
20260831062613 78 131 2.0 3.0 0.00 0.00 0.00 79 1019.2
20260831062112 78 173 2.0 3.0 0.00 0.00 0.00 79 1019.2
20260831061610 78 152 1.0 2.0 0.00 0.00 0.00 79 1019.2
20260831061107 78 182 2.0 2.0 0.00 0.00 0.00 79 1019.2
20260831060602 78 155 2.0 3.0 0.00 0.00 0.00 78 1019.3
20260831060056 78 148 2.0 2.0 0.00 0.00 0.00 78 1019.4
20260831055551 78 148 2.0 2.0 0.00 0.00 0.00 78 1019.2
20260831055047 78 136 2.0 2.0 0.00 0.00 0.00 78 1019.2
20260831054546 78 121 3.0 3.0 0.00 0.00 0.00 78 1019.3
20260831054045 79 192 1.0 3.0 0.00 0.00 0.00 77 1019.1
20260831053544 79 159 2.0 2.0 0.00 0.00 0.00 77 1019.2
20260831053039 79 119 2.0 3.0 0.00 0.00 0.00 77 1019.3
20260831052538 79 157 2.0 3.0 0.00 0.00 0.00 78 1019.1
20260831052037 79 180 3.0 3.0 0.00 0.00 0.00 78 1019.2
20260831051535 79 147 1.0 3.0 0.00 0.00 0.00 78 1019.2
20260831051030 79 157 2.0 3.0 0.00 0.00 0.00 78 1019.3
20260831050530 79 145 2.0 3.0 0.00 0.00 0.00 78 1019.4
20260831050028 79 178 2.0 3.0 0.00 0.00 0.00 78 1019.3
20260831045527 79 175 2.0 3.0 0.00 0.00 0.00 78 1019.3
20260831045023 79 147 2.0 3.0 0.00 0.00 0.00 78 1019.5
20260831044518 78 140 2.0 3.0 0.00 0.00 0.00 78 1019.3
20260831044014 78 165 2.0 3.0 0.00 0.00 0.00 78 1019.3
20260831043513 78 168 2.0 2.0 0.00 0.00 0.00 78 1019.4
20260831043009 78 173 2.0 3.0 0.00 0.00 0.00 78 1019.3
20260831042509 78 162 2.0 3.0 0.00 0.00 0.00 78 1019.4
20260831042003 79 178 2.0 2.0 0.00 0.00 0.00 78 1019.4
20260831041458 79 175 2.0 3.0 0.00 0.00 0.00 78 1019.3
20260831040952 78 154 2.0 3.0 0.00 0.00 0.00 79 1019.2
20260831040447 78 167 2.0 3.0 0.00 0.00 0.00 79 1019.3
20260831035944 78 167 2.0 3.0 0.00 0.00 0.00 79 1019.2
20260831035443 78 185 0.0 1.0 0.00 0.00 0.00 79 1019.3
20260831034939 78 147 1.0 2.0 0.00 0.00 0.00 80 1019.2
20260831034434 78 146 0.0 2.0 0.00 0.00 0.00 80 1019.3
20260831033929 78 150 1.0 2.0 0.00 0.00 0.00 79 1019.2
20260831033424 78 166 1.0 1.0 0.00 0.00 0.00 79 1019.4
20260831032919 78 142 0.0 0.0 0.00 0.00 0.00 78 1019.3
20260831032414 79 157 0.0 1.0 0.00 0.00 0.00 78 1019.4
20260831031909 79 150 1.0 2.0 0.00 0.00 0.00 77 1019.5
20260831031408 79 44 0.0 0.0 0.00 0.00 0.00 77 1019.5
20260831030903 79 104 0.0 0.0 0.00 0.00 0.00 77 1019.4
20260831030402 79 104 0.0 0.0 0.00 0.00 0.00 77 1019.3
20260831025901 79 142 0.0 0.0 0.00 0.00 0.00 77 1019.5
20260831025401 79 142 0.0 0.0 0.00 0.00 0.00 77 1019.4
20260831024856 79 135 0.0 2.0 0.00 0.00 0.00 77 1019.4
20260831024356 80 145 0.0 1.0 0.00 0.00 0.00 77 1019.3
20260831023855 80 104 0.0 2.0 0.00 0.00 0.00 76 1019.2
20260831023354 80 136 0.0 2.0 0.00 0.00 0.00 76 1019.2
20260831022849 80 142 0.0 0.0 0.00 0.00 0.00 76 1019.2
20260831022348 80 154 0.0 2.0 0.00 0.00 0.00 75 1019.1
20260831021842 81 134 0.0 1.0 0.00 0.00 0.00 74 1019.1
20260831021337 81 142 0.0 1.0 0.00 0.00 0.00 74 1019.3
20260831020833 82 129 0.0 1.0 0.00 0.00 0.00 72 1019.3
20260831020332 82 154 0.0 0.0 0.00 0.00 0.00 72 1019.2
20260831015828 82 154 0.0 0.0 0.00 0.00 0.00 72 1019.3
20260831015324 82 154 0.0 0.0 0.00 0.00 0.00 72 1019.2
20260831014823 82 154 0.0 0.0 0.00 0.00 0.00 71 1019.1
20260831014318 82 154 0.0 0.0 0.00 0.00 0.00 71 1018.9
20260831013814 82 154 0.0 0.0 0.00 0.00 0.00 70 1018.9
20260831013314 82 154 0.0 0.0 0.00 0.00 0.00 70 1018.8
20260831012809 83 154 0.0 0.0 0.00 0.00 0.00 70 1018.9
20260831012306 83 154 0.0 0.0 0.00 0.00 0.00 70 1018.8
20260831011803 83 154 0.0 0.0 0.00 0.00 0.00 69 1018.5
20260831011259 83 154 0.0 1.0 0.00 0.00 0.00 69 1018.4
20260831010754 83 129 0.0 0.0 0.00 0.00 0.00 68 1018.6
20260831010249 84 129 0.0 0.0 0.00 0.00 0.00 68 1018.6
20260831005745 84 154 0.0 0.0 0.00 0.00 0.00 67 1018.4
20260831005240 84 154 0.0 1.0 0.00 0.00 0.00 66 1018.3
20260831004735 85 142 0.0 1.0 0.00 0.00 0.00 65 1018.5
20260831004231 85 89 0.0 0.0 0.00 0.00 0.00 65 1018.5
20260831003726 85 89 0.0 0.0 0.00 0.00 0.00 64 1018.3
20260831003223 85 89 0.0 0.0 0.00 0.00 0.00 64 1018.3
20260831002722 86 89 0.0 0.0 0.00 0.00 0.00 64 1018.2
20260831002216 86 34 0.0 0.0 0.00 0.00 0.00 64 1018.2
20260831001712 86 351 0.0 1.0 0.00 0.00 0.00 63 1018.4
20260831001212 86 355 1.0 1.0 0.00 0.00 0.00 63 1018.4
20260831000709 86 330 0.0 1.0 0.00 0.00 0.00 62 1018.2
20260831000204 87 0 1.0 1.0 0.00 0.00 0.00 61 1018.2
20260830235703 87 345 1.0 2.0 0.00 0.00 0.00 61 1018.3
20260830235158 87 0 1.0 2.0 0.00 0.00 0.00 60 1018.3
20260830234652 88 338 2.0 4.0 0.00 0.00 0.00 60 1018.4
20260830234143 88 11 2.0 3.0 0.00 0.00 0.00 59 1018.3
20260830233638 88 351 0.0 1.0 0.00 0.00 0.00 59 1018.3
20260830233133 88 38 0.0 1.0 0.00 0.00 0.00 58 1018.2
20260830232629 88 135 0.0 2.0 0.00 0.00 0.00 58 1018.2
20260830232125 89 117 0.0 3.0 0.00 0.00 0.00 57 1018.2
20260830231621 89 155 1.0 4.0 0.00 0.00 0.00 57 1018.1
20260830231120 89 122 1.0 5.0 0.00 0.00 0.00 56 1018.1
20260830230615 89 183 1.0 7.0 0.00 0.00 0.00 55 1018.0
20260830230110 89 148 2.0 7.0 0.00 0.00 0.00 55 1017.9
20260830225605 89 138 3.0 5.0 0.00 0.00 0.00 55 1018.1
20260830225100 90 166 1.0 6.0 0.00 0.00 0.00 55 1018.0
20260830224558 90 131 1.0 3.0 0.00 0.00 0.00 54 1017.9
20260830224055 90 145 1.0 3.0 0.00 0.00 0.00 53 1018.0
20260830223551 91 149 2.0 7.0 0.00 0.00 0.00 53 1017.7
20260830223045 91 126 5.0 6.0 0.00 0.00 0.00 52 1017.7
20260830222540 91 111 0.0 3.0 0.00 0.00 0.00 52 1017.9
20260830222036 91 185 0.0 7.0 0.00 0.00 0.00 51 1017.9
20260830221532 92 149 1.0 5.0 0.00 0.00 0.00 51 1017.9
20260830221028 92 195 3.0 6.0 0.00 0.00 0.00 51 1017.9
20260830220527 92 222 0.0 2.0 0.00 0.00 0.00 51 1017.9
20260830220026 92 294 2.0 2.0 0.00 0.00 0.00 50 1017.8
20260830215520 92 347 2.0 3.0 0.00 0.00 0.00 51 1017.8
20260830215015 92 113 0.0 4.0 0.00 0.00 0.00 51 1018.0
20260830214510 92 89 3.0 5.0 0.00 0.00 0.00 51 1017.8
20260830214004 92 53 2.0 3.0 0.00 0.00 0.00 51 1018.0
20260830213459 92 292 2.0 5.0 0.00 0.00 0.00 51 1017.8
20260830212954 91 213 3.0 7.0 0.00 0.00 0.00 51 1017.9
20260830212450 91 132 2.0 4.0 0.00 0.00 0.00 51 1018.1
20260830211949 91 70 1.0 5.0 0.00 0.00 0.00 52 1018.0
20260830211444 91 202 0.0 4.0 0.00 0.00 0.00 52 1018.1
20260830210939 90 204 3.0 4.0 0.00 0.00 0.00 53 1018.3
20260830210433 90 209 2.0 4.0 0.00 0.00 0.00 54 1018.2
20260830205931 90 202 3.0 4.0 0.00 0.00 0.00 54 1018.2
20260830205430 90 191 4.0 5.0 0.00 0.00 0.00 52 1018.3
20260830204920 91 121 4.0 8.0 0.00 0.00 0.00 52 1018.3
20260830204419 91 139 3.0 4.0 0.00 0.00 0.00 52 1018.3
20260830203914 91 206 1.0 3.0 0.00 0.00 0.00 54 1018.4
20260830203411 90 4 2.0 3.0 0.00 0.00 0.00 55 1018.5
20260830202910 90 37 0.0 1.0 0.00 0.00 0.00 55 1018.6
20260830202405 90 25 0.0 3.0 0.00 0.00 0.00 55 1018.6
20260830201900 90 80 0.0 2.0 0.00 0.00 0.00 55 1018.7
20260830201354 90 86 1.0 2.0 0.00 0.00 0.00 54 1018.6
20260830200849 90 164 2.0 4.0 0.00 0.00 0.00 53 1018.8
20260830200349 91 172 1.0 3.0 0.00 0.00 0.00 53 1018.9
20260830195839 91 199 4.0 9.0 0.00 0.00 0.00 52 1018.8
20260830195338 91 170 0.0 3.0 0.00 0.00 0.00 54 1019.0
20260830194837 90 119 3.0 7.0 0.00 0.00 0.00 55 1019.1
20260830194336 89 344 1.0 6.0 0.00 0.00 0.00 55 1019.0
20260830193831 89 247 3.0 4.0 0.00 0.00 0.00 55 1019.2
20260830193326 90 210 3.0 6.0 0.00 0.00 0.00 54 1019.1
20260830192822 91 126 3.0 3.0 0.00 0.00 0.00 53 1019.2
20260830192321 92 148 2.0 4.0 0.00 0.00 0.00 52 1019.2
20260830191817 92 155 2.0 3.0 0.00 0.00 0.00 55 1019.2
20260830191316 91 300 4.0 7.0 0.00 0.00 0.00 55 1019.4
20260830190812 90 247 2.0 5.0 0.00 0.00 0.00 56 1019.4
20260830190312 89 102 1.0 3.0 0.00 0.00 0.00 57 1019.5
20260830185810 89 172 0.0 5.0 0.00 0.00 0.00 56 1019.6
20260830185306 90 266 0.0 3.0 0.00 0.00 0.00 57 1019.7
20260830184801 90 271 3.0 4.0 0.00 0.00 0.00 57 1019.5
20260830184300 90 139 2.0 6.0 0.00 0.00 0.00 56 1019.7
20260830183756 90 126 2.0 5.0 0.00 0.00 0.00 56 1019.8
20260830183255 91 201 4.0 8.0 0.00 0.00 0.00 55 1019.7
20260830182751 90 298 3.0 8.0 0.00 0.00 0.00 58 1019.7
20260830182247 90 248 1.0 6.0 0.00 0.00 0.00 56 1020.2
20260830181743 90 173 0.0 6.0 0.00 0.00 0.00 57 1020.1
20260830181238 90 128 3.0 10.0 0.00 0.00 0.00 57 1020.2
20260830180737 90 211 4.0 9.0 0.00 0.00 0.00 57 1020.4
20260830180231 90 180 2.0 6.0 0.00 0.00 0.00 57 1020.3
20260830175726 89 204 1.0 4.0 0.00 0.00 0.00 60 1020.5
20260830175221 88 89 0.0 6.0 0.00 0.00 0.00 61 1020.5
20260830174715 88 208 5.0 7.0 0.00 0.00 0.00 60 1020.8
20260830174212 88 207 4.0 6.0 0.00 0.00 0.00 60 1020.7
20260830173711 87 56 2.0 7.0 0.00 0.00 0.00 63 1021.0
20260830173206 87 189 1.0 5.0 0.00 0.00 0.00 62 1021.1
20260830172703 87 180 2.0 3.0 0.00 0.00 0.00 61 1020.8
20260830172159 87 135 7.0 9.0 0.00 0.00 0.00 62 1021.1
20260830171654 87 170 2.0 5.0 0.00 0.00 0.00 61 1021.0
20260830171149 87 169 0.0 8.0 0.00 0.00 0.00 62 1021.4
20260830170643 87 279 2.0 5.0 0.00 0.00 0.00 63 1021.2
20260830170143 87 143 0.0 6.0 0.00 0.00 0.00 63 1021.3
20260830165637 86 46 2.0 2.0 0.00 0.00 0.00 66 1021.4
20260830165133 87 7 3.0 3.0 0.00 0.00 0.00 65 1021.2
20260830164630 87 128 2.0 7.0 0.00 0.00 0.00 64 1021.3
20260830164125 87 158 4.0 6.0 0.00 0.00 0.00 63 1021.4
20260830163622 87 108 3.0 4.0 0.00 0.00 0.00 64 1021.3
20260830163121 87 195 0.0 7.0 0.00 0.00 0.00 66 1021.6
20260830162617 86 130 6.0 9.0 0.00 0.00 0.00 66 1021.5
20260830162112 86 118 3.0 9.0 0.00 0.00 0.00 67 1021.5
20260830161607 85 201 5.0 8.0 0.00 0.00 0.00 66 1021.6
20260830161101 85 118 5.0 6.0 0.00 0.00 0.00 68 1021.7
20260830160557 85 139 1.0 6.0 0.00 0.00 0.00 68 1021.8
20260830160052 86 136 2.0 9.0 0.00 0.00 0.00 67 1021.8
20260830155549 85 189 8.0 8.0 0.00 0.00 0.00 68 1021.8
20260830155044 84 84 5.0 7.0 0.00 0.00 0.00 70 1021.7
20260830154539 85 220 3.0 4.0 0.00 0.00 0.00 70 1021.7
20260830154036 84 100 3.0 9.0 0.00 0.00 0.00 71 1021.9
20260830153532 84 166 4.0 9.0 0.00 0.00 0.00 70 1022.0
20260830153031 85 135 4.0 6.0 0.00 0.00 0.00 71 1021.9
20260830152525 84 73 4.0 7.0 0.00 0.00 0.00 72 1022.0
20260830152024 84 163 4.0 6.0 0.00 0.00 0.00 72 1022.0
20260830151519 83 196 5.0 5.0 0.00 0.00 0.00 74 1022.1
20260830151014 83 197 3.0 5.0 0.00 0.00 0.00 75 1021.8
20260830150513 83 177 4.0 5.0 0.00 0.00 0.00 76 1021.9
20260830150008 83 205 4.0 7.0 0.00 0.00 0.00 75 1021.8
20260830145508 83 134 3.0 8.0 0.00 0.00 0.00 75 1022.0
20260830145003 83 147 3.0 5.0 0.00 0.00 0.00 76 1022.0
20260830144459 83 167 2.0 7.0 0.00 0.00 0.00 75 1021.9
20260830143954 82 113 3.0 5.0 0.00 0.00 0.00 78 1021.8
20260830143450 82 137 2.0 5.0 0.00 0.00 0.00 77 1022.0
20260830142948 82 146 3.0 6.0 0.00 0.00 0.00 79 1021.9
20260830142443 81 196 4.0 7.0 0.00 0.00 0.00 79 1021.9
20260830141938 81 189 2.0 6.0 0.00 0.00 0.00 80 1021.8
20260830141433 81 116 3.0 4.0 0.00 0.00 0.00 81 1022.0
20260830140928 80 127 6.0 7.0 0.00 0.00 0.00 82 1021.9
20260830140424 80 185 4.0 7.0 0.00 0.00 0.00 82 1021.9
20260830135923 80 200 3.0 7.0 0.00 0.00 0.00 83 1021.9
20260830135419 80 179 3.0 4.0 0.00 0.00 0.00 84 1021.8
20260830134914 79 115 3.0 4.0 0.00 0.00 0.00 84 1021.8
20260830134409 79 192 3.0 5.0 0.00 0.00 0.00 85 1021.8
20260830133905 79 191 3.0 5.0 0.00 0.00 0.00 85 1021.9
20260830133400 78 191 2.0 4.0 0.00 0.00 0.00 86 1021.8
20260830132855 78 97 1.0 4.0 0.00 0.00 0.00 86 1021.8
20260830132352 78 194 3.0 5.0 0.00 0.00 0.00 87 1021.8
20260830131850 77 123 3.0 4.0 0.00 0.00 0.00 87 1021.7
20260830131350 77 160 2.0 3.0 0.00 0.00 0.00 88 1021.7
20260830130845 77 181 1.0 3.0 0.00 0.00 0.00 88 1021.5
20260830130341 77 150 2.0 3.0 0.00 0.00 0.00 89 1021.7
20260830125839 76 133 3.0 4.0 0.00 0.00 0.00 89 1021.4
20260830125336 76 119 2.0 3.0 0.00 0.00 0.00 90 1021.6
20260830124833 75 131 1.0 3.0 0.00 0.00 0.00 90 1021.4
20260830124328 75 110 2.0 4.0 0.00 0.00 0.00 91 1021.5
20260830123825 75 122 2.0 3.0 0.00 0.00 0.00 91 1021.3
20260830123321 74 121 1.0 4.0 0.00 0.00 0.00 92 1021.4
20260830122818 74 105 1.0 2.0 0.00 0.00 0.00 92 1020.8
20260830122313 73 104 0.0 3.0 0.00 0.00 0.00 92 1021.2
20260830121808 73 137 0.0 3.0 0.00 0.00 0.00 92 1021.2
20260830121308 73 154 0.0 2.0 0.00 0.00 0.00 92 1021.1
20260830120803 73 309 0.0 1.0 0.00 0.00 0.00 92 1021.2
20260830120259 73 129 0.0 0.0 0.00 0.00 0.00 92 1021.2
20260830115755 73 166 0.0 2.0 0.00 0.00 0.00 92 1021.0
20260830115251 72 132 1.0 1.0 0.00 0.00 0.00 91 1021.2
20260830114747 72 62 0.0 0.0 0.00 0.00 0.00 91 1021.0
20260830114242 72 116 0.0 1.0 0.00 0.00 0.00 91 1020.8
20260830113737 72 104 0.0 2.0 0.00 0.00 0.00 91 1021.0
20260830113232 72 152 0.0 2.0 0.00 0.00 0.00 91 1020.8
20260830112728 72 151 1.0 2.0 0.00 0.00 0.00 91 1021.0
20260830112224 72 141 0.0 1.0 0.00 0.00 0.00 90 1020.8
20260830111719 72 129 0.0 1.0 0.00 0.00 0.00 90 1020.8
20260830111215 73 119 0.0 1.0 0.00 0.00 0.00 90 1020.7
20260830110709 73 154 0.0 1.0 0.00 0.00 0.00 90 1020.5